Best seller

Grab Daily Coupons to Cut Down Price for All Goods of Geekbuying

Want create site? Find Free WordPress Themes and plugins.

Here are daily coupons for Geekbuying hot products, we will update daily for you, you can focus on it and check if there is any needs before buying.

Update on July 16, 2018

Update Date Product Name Final Prices Link on Coupon Limited Qty Expiry Date
Priority Line to EU
2018/07/16 Official Global Version Xiaomi Mi8 6GB 64GBBlack $465.99 KCPVKBYH 100 2018/07/31 YES
2018/07/16 Lenovo Z5 6GB 64GB Black $236.99 LVUQLBHQ 100 2018/08/02 YES
2018/07/16 Lenovo Z5 6GB 64GB Blue $251.99 TLOPUYTM 100 2018/08/02 YES
2018/07/16 [HK Stock] Global Xiaomi Redmi 6A 2GB 16GB – Gold $109.99 ADZSZPNV 100 2018/08/02 YES
2018/07/16 [Italy Stock] Global Nubia M2 4GB 64GB – Black Gold / Champagne Gold $169.99 VISCGZKD 100 2018/08/16 YES
2018/07/16 OPPO Find X 8GB 128GB Red / Blue $859.99 WDLZCAIR 100 2018/08/02 YES
2018/07/16 OnePlus 5 6GB 64GB Slate Gray $469.99 QVTBFMVS 10 2018/07/31 YES
2018/07/16 Onda V18 Pro Quad Core 3G+32G $149.99 GKB012T 100 2018/08/16 YES
2018/07/16 Teclast A10S $109.99 GKB011T 100 2018/08/16 YES
2018/07/16 Binai Mini101 3G Phablet 10.1″ – Black $89.99 MRJSFXHU 100 2018/08/16 YES
2018/07/16 [Poland Stock]Xiaomi Xiaowa Lite $239.99 TEOLDBOC 100 2018/08/16 YES
2018/07/16 [Spain Stock]Xiaomi Xiaowa Lite $239.99 CNIUBMJX 100 2018/08/16 YES
2018/07/16 Xiaomi ZMI Portable Mosquito Repellent $17.99 CBDMKFXF 100 2018/08/16 YES
2018/07/16 Beelink KT03 Intel Apollo J3455 Barebone Mini PC $149.99 OBULKXJW 100 2018/08/16 YES
2018/07/16 MECOOL M8S PLUS L Amlogic S912 4K TV BOX $54.99 TPYXSNSW 100 2018/08/16 YES
2018/07/16 VESKYS N23 1080P WiFi IP Camera $28.99 MLUQHUYE 100 2018/08/16 YES
2018/07/16 Makibes KR02 Color Screen IP68 Built-in GPS Heart Rate Monitor $31.99 YGGFCQWS 100 2018/07/31 YES
2018/07/16 ACGAM G402 PMW3325 Wired Gaming Mouse $12.99 FIKTPYTW 100 2018/07/31 YES
2018/07/16 MJX Bugs 3 H B3H 5G WiFi FPV Brushless RC Quadcopter RTF $175.00 HYKKKFCG 100 2018/08/16 YES

 

Update on July 12, 2018

Update Date Product Name Final Prices Link on Coupon Limited Qty Expiry Date
Priority Line to EU
2018/07/12 Xiaomi Mi 6X 4GB 32GB black / red / gold / pink $221.99 QWOSHDDF 200 2018/08/12 YES
2018/07/12 HUAWEI Honor 7A 3GB 32GB Black/ blue $139.99 ZZSKTBDB 100 2018/08/12 YES
2018/07/12 HUAWEI Honor 9i 4GB 128GB Black $271.99 ZBYUGFBC 50 2018/08/12 YES
2018/07/12 Vivo Nex 6GB 128GB Black $621.99 CFVAAGWQ 50 2018/08/12 YES
2018/07/12 Xiaomi Mi8 6GB 64GB White / Blue $469.99 GUEYBSEU 100 2018/07/27 YES
2018/07/12 Xiaomi Mi8 6GB 64GB Black $479.99 WQPZGOHI 100 2018/07/27 YES
2018/07/12 Xiaomi Mi8 6GB 128GB Whire / Blue $489.99 LEPWQOJC 100 2018/07/27 YES
2018/07/12 [Italy Stock] Coolpad Cool Play 6 6GB 64GB – Black $199.99 BLPGFEFN 30 2018/08/12 YES
2018/07/12 HOMTOM ZOJI Z6 8GB ROM Black $65.99 YIGMFNVY 20 2018/07/27 YES
2018/07/12 HOMTOM ZOJI Z8 4GB 64GB Orange $168.99 PLEHPEYU 20 2018/07/27 YES
2018/07/12 Meiigoo S8 4GB 64GB Black / blue $145.99 APXEQNXJ 30 2018/07/27 YES
2018/07/12 Teclast F6 Pro Notebook – Italy / Spain / Germany Stock $489.99 VUKCKOCJ 50 2018/08/12 YES
2018/07/12 Jumper EZbook 3L Pro $239.99 GKB007T 50 2018/08/12 YES
2018/07/12 Jumepr Ezbook 2 $189.99 GKB006T 50 2018/08/12 YES
2018/07/12 Lenovo Watch X Quartz Smartwatch Heart Rate Monitor $69.99 PLWUWJIS 100 2018/08/12 YES
2018/07/12 [HK Stock] Weloop Neo GPS Dynamic Heart Rate Monitor $79.99 ALOZYGDD 100 2018/08/12 YES
2018/07/12 [HK Stock] Xiaomi Roidmi F8 Smart Vacuum Cleaner $319.99 ZMZRCVTQ 50 2018/08/12 YES
2018/07/12 [Germany Stock]Global Version Xiaomi Mijia Roborock Vacuum Cleaner 2 $435.99 RLOUHPLB 50 2018/08/12 YES
2018/07/12 [Poland Stock]Xiaomi Mi Robot Vacuum Cleaner Robot $319.99 IWATODMA 50 2018/08/12 YES
2018/07/12 [UK Stock] Xiaomi Mijia Roborock Vacuum Cleaner 2 $469.99 LGMSSQMD 50 2018/07/26 YES
2018/07/12 Xiaomi SWDK Wireless Handheld Ultraviolet Dust $108.99 WPYAVXZB 50 2018/07/26 YES
2018/07/12 Xiaomi HIMO Portable Folding Electric Assist Bicycle $335.99 RWRKTNRM 50 2018/08/12 YES
2018/07/12 Foream Drift Ghost-S Ambarella A7 1080p/60fps $179.99 VPGSBEAT 50 2018/07/26 YES
2018/07/12 Xiaomi ACTON Smart Electric Skateboard $185.99 BPSSZXUL 50 2018/07/26 YES
2018/07/12 Zhiyun Smooth 4 $126.00 MPJSMBAW 50 2018/08/12 YES
2018/07/12 JJRC R5 CADY $42.99 HCSUXITO 50 2018/08/12 YES
2018/07/12 Bayangtoys X22 Dual Gps Drone $215.99 YNUEQYFF 50 2018/08/03 YES
2018/07/12 [Poland Stock] XIAOMI 4K Mi Box $61.99 SHZVBGYW 50 2018/07/26 YES
2018/07/12 [Poland Stock] Nexbox A95X Pro 2G/16G S905W TV Box $42.99 EKNIMKWG 50 2018/07/26 YES
2018/07/12 [Poland Stock] VORKE Z6 Plus S912 3G/32G TV BOX 1000M LAN $64.99 VAGJRLAI 50 2018/07/26 YES
2018/07/12 [Poland Stock]MECOOLAndroid TV OS 3GB/32GB S912 TV Box $72.99 CNFTWWFB 50 2018/07/26 YES
2018/07/12 [Poland Stock]MX10 Android 8.1 RK3328 4GB+ 32GB 4K TV BOX $55.99 GRRIUOVP 50 2018/07/26 YES
2018/07/12 [Poland Stock]VORKE J3455 4K@60hz 4GB+64GB Windows MINI PC $159.99 URHGNAGX 50 2018/07/26 YES
2018/07/12 [Poland Stock]MECOOL Android TV OS 2GB/16GB S905W TV Box $44.99 WKOCMJBR 50 2018/07/26 YES
2018/07/12 [Poland Stock]TANIX TX3 MINI TV BOX Amlogic S905W 2G/16G $36.99 PJWBLBXZ 50 2018/07/26 YES

Update on July 11, 2018

Update Date Product Name Final Prices Link on Coupon Limited Qty Expiry Date
Priority Line to EU
2018/07/11 Xiaomi Black Shark 6GB 64GB Black $519.99 MNDUTURS 100 2018/07/26 YES
2018/07/11 Blackview A7 8GB – Gold $54.99 WYJQTFRD 100 2018/07/26 YES
2018/07/11 Binai Mini101 3G Phablet MTK6580 $89.99 GKB005T 100 2018/08/10 YES
2018/07/11 ALLDOCUBE Cube X1 4G Tablet PC MT6797 $229.99 GKB004T 100 2018/08/10 YES
2018/07/11 Xiaomi Power Bank 2 5000mAh $14.99 MOBEATMS 100 2018/08/11 YES
2018/07/11 [Poland Stock]Tronsmart Element Mega Bluetooth Speaker $47.99 ZCICTNNL 100 2018/07/25 YES
2018/07/11 GTMEDIA GTC DVB-T2/S2/C 4K TV BOX $69.99 XSSDZTDO 100 2018/08/11 YES
2018/07/11 Tronsmart Element Pixie Double Passive Radiators 15W Bluetooth Speaker $34.99 YXUTRGHF 100 2018/07/25 YES
2018/07/11 [HK Stock]Official International Version Xiaomi Mijia 4K $99.99 KXVDQMTO 100 2018/07/25 YES
2018/07/11 Xiaomi 90 Minutes Outdoor Leisure Backpack $65.99 SAZSPOCP 100 2018/07/25 YES
2018/07/11 Xiaomi Small Backpack Level 4 Waterproof 10L $9.99 WICFKUMU 100 2018/07/25 YES
2018/07/11 Xiaomi Roborock Xiaowa E20 Vacuum Cleaner $289.99 AKAYNTDE 100 2018/07/25 YES
2018/07/11 ENLif Cordless Smart Floor Cleaning Robot $119.99 MVNDFKGO 100 2018/07/25 YES
2018/07/11 Xiaomi Roidmi F8 Smart Vacuum Cleaner $379.99 PALZADJQ 100 2018/07/25 YES

 

Update on July 10, 2018

Update Date Product Name Final Prices Link on Coupon Limited Qty Expiry Date
2018/07/10 Xiaomi Mi8 6GB 128GB – Blue $495.99 FFJAFTOL 100 2018/08/09
2018/07/10 Xiaomi Mi 6x 4GB 64GB – All Colors $259.99 FILATKAD 100 2018/08/10
2018/07/10 Xiaomi Mi 6x 6GB 64GB – Black / Red $299.99 NSMYDEGU 100 2018/08/10
2018/07/10 Xiaomi Mi 6x 6GB 128GB – Black $319.99 KDNXXXYN 100 2018/08/10
2018/07/10 Coolpad Cool Play 6 6GB 64GB Black $154.99 VHNSROCR 100 2018/07/25
2018/07/10 One-Netbook One Mix $448.99 GKB003T 100 2018/07/24
2018/07/10 [Spain Stock]Teclast F6 Pro Notebook 8GB 128GB $525.99 GKB002T 100 2018/07/24
2018/07/10 Xiaomi S52 Mi Roborock Cleaning Robot $589.99 UFSZHJKM 100 2018/07/24
2018/07/10 Xiaomi Mijia Smart Toilet Seat $289.99 FCNAFUXK 30 2018/07/24
2018/07/10 Misida PL-603 Pushing Fat Machine $48.99 MZHGNYGH 100 2018/07/24
2018/07/10 Lenovo Watch 9 Quartz Smartwatch $24.99 AMOKWYQQ 100 2018/08/09
2018/07/10 Makibes DM2018 4G Smartwatch Phone $89.99 SWHIUEWW 100 2018/07/24
2018/07/10 International Version YI Compact Dash Camera $44.99 SQJHSAUB 100 2018/07/24
2018/07/10 Xiaoyi Yi Smart Car DVR Dash Camera $54.99 XUZDTNCL 100 2018/07/24
2018/07/10 DDPai Mini2 2K Car DVR Camera Built-in Dual $69.99 MPJTVAEY 100 2018/07/24
2018/07/10 Xiaomi MIIIW Intelligent Mouse Pad Support Qi Wireless Charging $45.99 GMFYBUNF 100 2018/08/10
2018/07/10 SYMA Z1 $39.99 TZVLCNGZ 100 2018/07/24
2018/07/10 NIHUI NH-012 RC Hexacopter $56.99 BMJPDYJA 100 2018/07/24

 

Update on July 9, 2018

Update Date Product Name Final Prices Link on Coupon Limited Qty Expiry Date
2018/07/09 Xiaomi Mi Band 3 $30.99 NHUAZZRD 100 2018/08/09
2018/07/09 [HK Stock] Xiaomi Mi Band 3 $30.99 NHUAZZRD 100 2018/08/09
2018/07/09 Xiaomi Mi Band 3 + Replacement Strap + Protective Screen Film $34.49 BOQIICDF 100 2018/08/09
2018/07/09 Replacement Strap Silicon for Xiaomi Mi Band 3 – All colors $1.99 DLJEAPHO 100 2018/08/09
2018/07/09 Protective Screen Film for Xiaomi Mi Band 3 $1.99 DLJEAPHO 100 2018/08/09
2018/07/09 Original USB Charging Cable for Xiaomi Mi Band 3 $2.99 LYHVAXLA 100 2018/08/09
2018/07/09 Leather Replacement Strap for Xiaomi Mi Band 3 $2.99 LYHVAXLA 100 2018/08/09
2018/07/09 Lenovo Watch 9 Quartz Smartwatch $26.99 AMOKWYQQ 100 2018/08/09
2018/07/09 Makibes BR2 Smartwatch $64.99 IXMRBAHL 50 2018/08/07
2018/07/09 [International Edition] Xiaomi QICYCLE EF1 Smart Bicycle – Black $675.99 OFJPFVJA 50 2018/08/09
2018/07/09 [Poland Stock] XIAOMI 4K Mi Box $57.90 BEZP21 50 2018/08/09
2018/07/09 Xiaomi MIIIW E-sports Mouse Pad $14.99 BDPHZJNH 50 2018/08/07
2018/07/09 Xiaomi Roidmi F8 Smart Vacuum Cleaner $335.99 FYQYLAQC 50 2018/08/07
2018/07/09 Light-Sensitive Bug Zapper $28.99 HRFVKMCL 50 2018/08/07
2018/07/09 Xiaomi Xumei Four-head Reciprocating Shaver $62.99 NFUUDKZO 50 2018/08/07
2018/07/09 Orvibo Xiaofang Wireless Smart WIFI Remote Control Magic Cube $26.99 EJCFWTUZ 50 2018/08/07
2018/07/09 ESCAM QF508 1080P WiFi IP Camera $49.99 HJJRPVDI 50 2018/08/07
2018/07/09 EU Edition YI Home Camera HD 720p $38.99 TZJGBSHQ 50 2018/08/07
2018/07/09 Xiaomi Hualai Xiaofang Smart WiFi IP Camera $49.99 XMDGJGDQ 50 2018/08/07

 

Update on July 7, 2018

Update Date Product Name Final Prices Link on Coupon Limited Qty Expiry Date
2018/07/07 Xiaomi Redmi Note 5 3GB 32GB Black $175.99 OOHQXIFD 100 2018/08/06
2018/07/07 Xiaomi Redmi Note 5 3GB 32GB Gold $179.99 UVNODRRQ 100 2018/08/06
2018/07/07 Xiaomi Mi8 6GB 64GB White $449.99 GMSSGTFF 100 2018/08/06
2018/07/07 Xiaomi Mi8 6GB 64GB black / Blue $453.99 QHGKDNUA 100 2018/08/06
2018/07/07 Xiaomi Mi8 6GB 128GB White $489.99 MMZUYSNC 100 2018/08/06
2018/07/07 [Italy Stock] Global Xiaomi Mi Mix 2 8GB 128GB – White $572.99 OEJOYIIM 20 2018/08/07
2018/07/07 [Spain Stock] Global Xiaomi Redmi Note 5 4GB 64GB – Black $224.99 RWJPTMGO 50 2018/08/07
2018/07/07 [Italy Stock] English Xiaomi HUAMI AMAZFIT Smart Watch 2 – Black $169.99 GVAFESGP 50 2018/08/07
2018/07/07 [Italy Stock] English Xiaomi Huami Amazfit Bip Lite – Green/Orange/Gray $66.99 YUKDOQMW 100 2018/08/07
2018/07/07 [Germany Stock] English Xiaomi Huami Amazfit Cor $54.99 RGTOYUFI 50 2018/08/05
2018/07/07 [Spain Stock] Xiaomi HUAMI AMAZFIT Stratos Smart Watch 2 $174.99 OSGHOJEY 50 2018/08/05
2018/07/07 [Spain Stock] Xiaomi MITU WIFI FPV RC Drone BNF $76.00 JEVVEGSQ 50 2018/08/07
2018/07/07 [Poland Stock] Ramsta S600 480GB SATA3 High Speed SSD – Red $89.99 WVZZBQFG 50 2018/08/07
2018/07/07 [Poland Stock]Tronsmart Element Mega Bluetooth Speaker $52.99 JIUAAHVL 50 2018/08/05
2018/07/07 [Poland Stock] Makibes BR1 Smartwatch Support Strava – Black $49.99 CXNGZCBF 50 2018/08/07
2018/07/07 Xiaomi CIGA Wristwatch Hollow Mechanical $169.99 SLEAMWPZ 50 2018/08/07
2018/07/07 X-STAR DBS 480GB SSD $74.99 UDGPZSXD 50 2018/08/05
2018/07/07 Xiaomi Mijia Cat Disk Shareable Smart Hard Disk 1TB Large Capacity $109.99 NLYVJXMD 50 2018/08/05
2018/07/07 VIOFO A119 V2 NTK96660 OV4689 2.0 Inch $74.99 GLOSUZEJ 50 2018/08/05
2018/07/07 Xiaomi Wowstick 1F + Electric Screwdriver $36.99 SPFJBHGA 50 2018/08/05
2018/07/07 Xiaomi Mi Robot Vacuum Cleaner Robot $349.99 OTLCUJDD 50 2018/08/05
2018/07/07 12PCS Xiaomi Radical Gel Pen $7.99 STPGDFEP 50 2018/08/05
2018/07/07 Geekbes WiFi Smart Bulb $13.99 JVJGEEGQ 50 2018/08/05
2018/07/07 Xiaomi Jushu Smart Security Turntable Lock $295.99 ITQIZQZX 50 2018/08/05
2018/07/07 Original Thieye T5e WiFi 4K Action Camera Ambarella A12LS75 $116.99 URVEIIPO 50 2018/08/05
2018/07/07 [HK Stock] [International Edition] Xiaoyi Yi Smart Car DVR $54.99 HATKFPFH 50 2018/08/05
2018/07/07 4 Parking Sensors Car Reversing Radar Kit Radar $13.99 MLLTBRHL 50 2018/08/05
2018/07/07 Ilpaladino Men’s Short Sleeve Cycling Jersey $15.99 XYKBAHOW 50 2018/08/05
2018/07/07 Vikcam DR60 Car DVR Ambarella A12A25 $44.99 XNVWHVAX 50 2018/08/05
2018/07/07 Chuwi Lapbook Air N3450 8G/128G $364.99 GKB001T 50 2018/08/05
2018/07/07 VOYO i8 Max with Bluetooth Keyboard +Stylus Pen $235.99 GKB99VT 50 2018/08/05
2018/07/07 NOOMAI A108S 4G LTE Phablet $89.99 VZDVCDMN 50 2018/08/05
2018/07/07 JJRC H64 SPIDERMAN $18.99 ADIAQFVK 50 2018/08/05
2018/07/07 DJI Tello Storage Case $13.99 EDBUNSNV 50 2018/08/05
2018/07/07 DJI Mavic Air Fly More Combo $955.00 MQTJAQZA 50 2018/08/05
2018/07/07 DJI Mavic Air 4K RTF $735.00 NVIZHBPR 50 2018/08/05
2018/07/07 DJI Tello 720P WIFI FPV RC Drone – BNF $95.00 WXCTRRJI 50 2018/08/05

 

Update on July 5, 2018

Update Date Product Name Final Prices Link On Coupon Limited Qty Expiry Date
2018/07/05 ZTE Axon M Z999 4GB 64GB Black $529.99 RLBRPNJM 100 2018/08/05
2018/07/05 ZTE Axon M Z999 6GB 128GB Black $729.99 JANRLXIW 100 2018/08/05
2018/07/05 HUAWEI Honor V10 4GB 64GBGold / Black $402.99 SKQRQSLD 100 2018/08/05
2018/07/05 HUAWEI Nova 2 4GB 64GB Gold $279.99 CLWPAEHN 100 2018/08/05
2018/07/05 HUAWEI Mate 10 4GB 64GB Mocha Gold / Champagne Gold $488.99 CCLQMLXL 100 2018/08/05
2018/07/05 HUAWEI Mate 10 6GB 128GB Black / Mocha Gold / Champagne Gold $569.99 KOEOIFLK 200 2018/08/05
2018/07/05 M-horse Pure 3 4GB 64GB Black $109.99 ERDMBKLV 50 2018/08/05
2018/07/05 MEIZU M6 2GB 16GB Gold $109.99 HHOSOVTN 100 2018/08/05
2018/07/05 Nokia 6 4GB RAM 64GB Black $229.99 YNRAXDNH 100 2018/08/05
2018/07/05 ZGPAX S222 Wearable Action Camera Sports $71.99 ENZGSXOG 100 2018/08/05
2018/07/05 K8 Portable GPS Tracker Vibration Real-time Tracking $22.99 JWABDBQF 100 2018/08/05
2018/07/05 VIOFO Car CPL Filter Lens Cover Circular Polarizing $15.99 FMOJSOVW 100 2018/08/05
2018/07/05 Xiaomi Mijia PMA A11 Smart Therapy Belt $39.99 HFNNGYCD 100 2018/08/05
2018/07/05 Electric Egg Beater Household Handheld $22.99 IKCXIUWL 100 2018/08/05
2018/07/05 [Germany Stock]Makibes G03 Plus Smart Bracelet $44.99 XOZMZFLQ 100 2018/08/05
2018/07/05 [Germany Stock][English Version] Original Xiaomi Mi WiFi 3 Router $34.99 TMMXJBIF 100 2018/08/05
2018/07/05 Tronsmart 42W USB-C 2-Port Wall Charger with Power Delivery $17.99 UCKYQLAU 100 2018/08/05


Update on July 3, 2018

Update Date Product Name Final Prices Link on Coupon Limited Qty Expiry Date
2018/07/03
$20 off every $100, $10 0ff every $100, $5 off every $50
2018/07/03 Xiaomi Mi Mix 2S 6GB 64GB Black $477.99 GPNCWAFL 100 2018/08/03
2018/07/03 Xiaomi Redmi Note 5 4GB 64GB Black $204.99 UTRFQZIG 100 2018/08/03
2018/07/03 Xiaomi Mi8 SE 4GB 64GB Gold / Dark Gray $309.99 OXSHFASO 100 2018/08/03
2018/07/03 Xiaomi Mi8 SE 6GB 64GB Blue/ Red $359.99 GQPOGXBA 100 2018/08/03
2018/07/03 Xiaomi Mi8 SE 6GB 64GB Gold / Dark Gray $345.99 TWRRSYGC 100 2018/08/03
2018/07/03 Xiaomi Mi8 6GB 64GB White / Black $469.99 FCRISVSU 100 2018/08/03
2018/07/03 Xiaomi Mi8 6GB 128GB Black /Gold /White / Blue $505.99 CFHQTYZO 200 2018/08/03
2018/07/03 Xiaomi Mi8 6GB 256GB Blue /Black $559.99 GWNNZOWF 100 2018/08/03
2018/07/03 XIAOMI Redmi 3S 2GB 16GB Dark Gray $149.99 EUVICOFQ 20 2018/08/03
2018/07/03 Meiigoo S8 4GB 64GB Black $169.99 TFQHNXJC 30 2018/08/03
2018/07/03 HUAWEI Honor 9 6GB 64GB Blue $355.99 HDBJZURX 20 2018/08/03
2018/07/03 Ulefone Armor 2 6GB 64GB Dark Gray $239.99 XCUNEDLO 30 2018/08/03
2018/07/03 Lenovo TAB3 8 Plus $149.99 GKB97LM 100 2018/08/03
2018/07/03 VOYO i8 Max MT6797 Deca Core 4G/64G $195.99 GKB96VM 100 2018/08/03
2018/07/03 Xiaomi Dafang Smart 1080P WiFi IP Camera $29.99 VYTSHLKA 100 2018/08/03
2018/07/03 [Italy Stock]Tronsmart Element T6 25W Speaker-black $42.99 PLFYPEFX 30 2018/08/03
2018/07/03 [Spain Stock]Tronsmart Element T6 25W Speaker-black $42.99 GAUZMGCW 100 2018/08/03

 

Update on July 2, 2018

Update Date Product Name Final Prices Link on Coupon Limited Qty Expiry Date
2018/07/02 ZTE Nubia M2 Lite 3GB RAM 64GB Black Gold $119.99 CUBBIONE 100 2018/08/02
2018/07/02 MEIZU M5 NOTE 3GB RAM 32GB Gold $109.99 RVTHFAOP 50 2018/08/02
2018/07/02 MEIZU M5 NOTE 4GB RAM 46GB Gold $119.99 ZRJOSBID 20 2018/08/02
2018/07/02 Oneplus 6 8GB 128GB Silk White $605.99 VCNAOTBE 100 2018/08/02
2018/07/02 Ulefone X 5.85 Inch 4GB 64GB Black $159.99 TQAALTIH 100 2018/07/29
2018/07/02 Coolpad Cool Play 6 6GB 64GB Black $165.99 MIGBCLYS 100 2018/07/29
2018/07/02 Xiaomi Redmi 6A 2GB 16GB Gold $109.99 XBRKGKMX 200 2018/07/28
2018/07/02 Xiaomi Redmi 6 3GB 32GB Silver Gray $145.99 QAWPMUBS 200 2018/07/28
2018/07/02 HUAWEI Honor 9 6GB 64GB – Blue $359.99 QUAWURWS 100 2018/07/28
2018/07/02 SHARP Z2 4GB 32GB Gold $109.99 BHERVHLB 100 2018/07/27
2018/07/02 Meizu 15 Plus 6GB 64GB Black $539.99 ZPQAQLJZ 100 2018/07/27
2018/07/02 Meizu 15 Plus 6GB 128GB Black $559.99 EJLUSBON 100 2018/07/27
2018/07/02 LeTV LeEco Le Pro 3 AI Edition X651 4GB 32GB Black $135.99 BDAUWUNP 100 2018/07/27
2018/07/02 Nokia 7 Plus 4GB 64GB Black $349.99 YROMBHZV 100 2018/07/27
2018/07/02 Nokia 7 Plus 6GB 64GB Black $369.99 BFKTVEHM 100 2018/07/27
2018/07/02 Mi Notebook Air 13.3″ 8GB/256GB MX150 i5-7200U $759.99 GKB95MF 100 2018/07/15
2018/07/02 Mi Gaming laptop 15.6″ i5-7300HQ GTX1060 8GB /128GB 1T HDD $1,179.99 GKB94MF 100 2018/07/15
2018/07/02 Mi Gaming laptop 15.6″ i7-7700HQ GTX1060 8GB/128GB 1T HDD $1,339.99 GKB93MF 100 2018/07/15
2018/07/02 [ES Stock] Jumper EZpad 6 Plus with Keyboard $272.99 GKB92JT 50 2018/07/27
2018/07/02 Jumper EZbook 3 Pro 6G/128G $289.99 GKB91JT 100 2018/07/27
2018/07/02 [Package A] Xiaomi Mijia Roborock Vacuum Cleaner 2 $459.99 IEHQGBVZ 100 2018/07/15
2018/07/02 LED Clip Plant Light $21.99 TOAWKNOF 100 2018/07/27
2018/07/02 2pcs Fast Automatic Shoes Cover $6.99 NNYIMGEY 100 2018/07/27
2018/07/02 Tronsmart C24 Dual USB Ports Smart Mini Car Charger $2.99 YJFMWKZG 100 2018/07/29
2018/07/02 Tronsmart mega speaker $41.99 TYMZPSUO 100 2018/07/29
2018/07/02 Tronsmart T6 speaker -black/red $40.99 PHIGBKQN 100 2018/07/29


Update on June 26, 2018

Update Date Product Name Final Prices Link on Coupon Limited Qty Expiry Date
2018/06/26 Xiaomi Mi Pad 4 WiFi Snapdragon 660 3GB 32GB – Black / Gold $224.99 MUYYARVK 100 2018/07/26
2018/06/26 Xiaomi Mi Pad 4 WiFi Snapdragon 660 4GB 64GB – Black / Gold $279.99 JDSFSEQV 100 2018/07/26
2018/06/26 Xiaomi Mi Pad 4 4G FDD-LTE Snapdragon 660 4GB 64GB – Black / Gold $295.99 KHVFOMXR 200 2018/07/26
2018/06/26 Xiaomi Redmi 6 Pro 4GB 32GB Black $231.99 JYXFIHNP 200 2018/07/26
2018/06/26 Xiaomi Redmi 6 Pro 4GB 64GB Black $249.99 WXUCGJPQ 200 2018/07/26
2018/06/26 [HK Stock] Global Xiaomi Redmi S2 4GB 64GB – Gold $184.99 Flash Sale 100 2018/07/26
2018/06/26 HUAWEI Honor 9 Lite 3GB 32GB – Black $160.31 GKB4%OFF 100 2018/07/26
2018/06/26 ASUS ZenFone 5 ZE620KL 6.2 Inch 4G64GB Silver / Black $375.99 WPBNXGUT 100 2018/07/26
2018/06/26 [Italy Stock] Huawei Band 2 Pro GPS Smart Bracelet $62.99 WBSUZEOL 10 2018/07/26
2018/06/26 [Italy Stock] Makibes G03 Plus Smart Bracelet GPS Color Screen $47.99 STRVWMOF 30 2018/07/26
2018/06/26 [Italy Stock] Ticwatch E Sports Smartwatch $147.99 RRGAQGFL 200 2018/07/26
2018/06/26 [Italy Stock] Ticwatch S Sports Smartwatch $177.49 ZYULGLCS 200 2018/07/26
2018/06/26 [France Stock] Xiaomi Mi Band 2 Smart Bracelet – Black $24.99 GSCSDGHZ 100 2018/07/26
2018/06/26 [Spain Stock] English Version Xiaomi Huami Amazfit Cor – Black $54.99 YZJFJOZT 20 2018/07/26
2018/06/26 [Germany Stock]Xiaomi Mi Home Sonic Electric Toothbrush $42.99 GKYRCLIC 20 2018/07/26
2018/06/26 [HK Stock] Xiaomi Roidmi F8 Smart Vacuum Cleaner $322.99 HYTIVWMX 100 2018/07/26
2018/06/26 [HK Stock] International Version Xiaomi Roborock Xiaowa Lite $229.99 SQLSJEVG 100 2018/07/26
2018/06/26 Xiaomi Xumei Four-head Reciprocating Shaver $62.99 NWWRNGMJ 50 2018/07/26
2018/06/26 XIAOMI 4K MI BOX $55.99 TVBOXMI 50 2018/07/26
2018/06/26 Beelink S2 Gemini Lake 4GB/128GB Win10 Mini PC $229.99 WZGNHUMX 50 2018/07/26
2018/06/26 [HK Stock] Elephone REXSO Explorer X Allwinner $22.99 TJJMVTYZ 50 2018/07/26
2018/06/26 Quelima SQ12 Mini Camera Sports HD DV Camcorder $20.99 CWHJYOIM 50 2018/07/26
2018/06/26 [HK Stock] Official International Version Xiaoyi YI 4K Action Camera $169.99 TUFGEQWW 50 2018/07/26
2018/06/26 Autobot ABV001 4200PA Car Vacuum Cleaner $69.99 AJBBNCJV 50 2018/07/26
2018/06/26 [ES Stock]Teclast F7 Laptop N3450 14 ” 1080P 6GB/64GB $279.99 GKB88TM 50 2018/07/26
2018/06/26 Onda X20 4G Phablet MTK6797 4GB 64GB $179.99 GKB87XM 50 2018/07/26
2018/06/26 Onda X20 4G Phablet MTK6797 3G+32G $159.99 GKB86XM 50 2018/07/26

 

Update on June 22, 2018

Update Date Product Name Final Prices Link on Coupon Limited Qty Expiry Date
2018/06/22 [UK Stock] Global Redmi 5 Plus 4GB 64GB Gold $213.99 JTHWFFWZ 100 2018/07/21
2018/06/22 [UK Stock] Oneplus 6 8GB 128GB Midnight Black $702.99 PAARUTKU 50 2018/07/21
2018/06/22 [UK Stock] Global Redmi 5 4GB 64GB plus Black $213.99 JTHWFFWZ 100 2018/07/21
2018/06/22 [UK Stock] Global Redmi 5 plus 4GB 64GB Blue $213.99 JTHWFFWZ 100 2018/07/21
2018/06/22 [UK Stock] Global Redmi NOTE 5 4GB 64GB Blue $246.99 MUWVHNJN 100 2018/07/21
2018/06/22 [UK Stock] Global Xiaomi Redmi Note 5 4GB 64GB Blue $246.99 MUWVHNJN 50 2018/07/21
2018/06/22 [UK Stock] Global Redmi NOTE 5 4GB 64GB Gold $246.99 MUWVHNJN 50 2018/07/21
2018/06/22 [UK Stock] Global Redmi 5 3GB32GB Black $166.99 QGGXPGJW 50 2018/07/21
2018/06/22 [France Stock] Huawei Honor 9 Lite LLD-AL00 3G 32G Blue $222.99 JOBMWHRQ 30 2018/07/21
2018/06/22 [France Stock] Huawei Honor 9 Lite LLD-AL00 3G 32G Grey $218.99 CREGUKVW 30 2018/07/21
2018/06/22 [France Stock] Huawei Honor 9 Lite LLD-AL00 3G 32G Black $225.99 OOUAKNLL 30 2018/07/21
2018/06/22 [France Stock] Global Redmi 5 Plus 4G 64G Black $214.99 SLIWWQPL 200 2018/07/21
2018/06/22 [France Stock] Global Redmi 5 Plus 4G 64G Blue $215.99 KUWZTCWC 200 2018/07/21
2018/06/22 [France Stock] Global Redmi 5 Plus 4G 64G Gold $208.99 HGIYLQLE 200 2018/07/21
2018/06/22 [France Stock] Xiaomi Band 2 Black $24.99 ZMJLVTHZ 300 2018/07/21
2018/06/22 [France Stock] Global Redmi NOTE 5 4G 64G Black $246.99 XGIKAUMG 200 2018/07/21
2018/06/22 [France Stock] Global Redmi NOTE 5 4G 64G Gold $246.99 XGIKAUMG 100 2018/07/21
2018/06/22 [France Stock] Global Redmi NOTE 5 4G 64G Blue $246.99 XGIKAUMG 200 2018/07/21
2018/06/22 [France Stock] Global Xiaomi A1 4G 32G Black $199.99 LYVMHNTY 100 2018/07/21
2018/06/22 [Germany Stock]Bundle Tronsmart Mega Speaker + Carrying Case $54.99 YTPJCBOL 100 2018/07/22
2018/06/22 [Italy Stock]Tronsmart Element T6 Speaker- Black $42.99 WTOLRHVW 100 2018/07/22
2018/06/22 [Spain Stock]Original Xiaoyi YI 1080p Dome Camera $49.99 VYYORUNZ 100 2018/07/22
2018/06/22 HUAWEI Honor Play 4GB 64GB – Black $366.71 GKB4%OFF 100 2018/07/22
2018/06/22 HUAWEI Honor Play 6GB 64GB- Black $435.83 GKB4%OFF 100 2018/07/22
2018/06/22 [HK Stock]ZTE Nubia Z17 6GB 64GB- Black $379.99 BYWCOJEQ 30 2018/07/22
2018/06/22 OPPO R11 4GB 64GB – Black $348.99 HBHDSOQD 30 2018/07/22
2018/06/22 [HK Stock]Blackview P10000 Pro 4GB 64GB – Black $209.99 REDQUFJD 100 2018/07/22
2018/06/22 [HK Stock] Global Ulefone T1 Premium 6GB 128GB – Red Blue $229.99 EADWGGOB 30 2018/07/22
2018/06/22 [HK Stock]Leagoo S8 Pro 6GB 64GB – Black $225.99 LVZSQDSX 30 2018/07/22
2018/06/22 [HK Stock]Blackview P2 4GB 64GB – Gold $123.99 YBPNTNZP 30 2018/07/22
2018/06/22 AGM A8 SE 2GB 16GB – Black $109.99 FPSFIBBG 30 2018/07/22
2018/06/22 [HK Stock] HOMTOM HT20 Pro 3GB 32GB – White $109.99 STNEIDLZ 30 2018/07/22
2018/06/22 [HK Stock] DOOGEE X5 Max Pro 2GB 16GB – White $69.99 SGTDBJGP 30 2018/07/22
2018/06/22 [US Version] ZTE Nubia N1 Lite 2GB 16GB – Black Gold $79.99 OXNWHBBF 30 2018/07/22
2018/06/22 [HK Stock] CUBOT R9 2GB 16GB – Gold $65.99 SGWPKHNV 30 2018/07/22
2018/06/22 [HK Stock] Global Xiaomi Mi Mix 2 6GB 64GB – Black $369.99 YZUKXVON 50 2018/07/22
2018/06/22 [HK Stock] Ulefone U007 1GB 8GB – Gray $55.99 DPMLCHNY 50 2018/07/22
2018/06/22 [HK Stock] ZTE Nubia Z17miniS 6GB 64GB- Black Gold $239.99 BIVFXUVS 30 2018/07/22
2018/06/22 [HK Stock] Blackview BV8000 Pro 6GB 64GB – Gold $228.99 TGXORYSD 50 2018/07/22
2018/06/22 [HK Stock] E&L S30 2GB 16GB – Black $99.99 AMNPGYYD 50 2018/07/22
2018/06/22 [HK Stock] HOMTOM S8 4GB 64GB – Midnight Blak $99.99 RUXQRDUA 50 2018/07/22
2018/06/22 [HK Stock] MEIZU M5 NOTE / Meilan Note 5 4GB 64GB- Gold $129.99 HGJPFRXN 50 2018/07/22
2018/06/22 [HK Stock] Nomu S30 Mini 3GB 32GB – Silver $128.99 UHSVXNCD 50 2018/07/22
2018/06/22 [HK Stock] CUBOT CHEETAH 2 3GB 32GB – Gold $99.99 AGNCPNBX 50 2018/07/22
2018/06/22 Meiigoo S8 4GB 64GB – Blue $149.99 PZHPAVSM 50 2018/07/22
2018/06/22 [HK Stock]CUBOT Magic 3GB 16GB – Black Gold $89.99 YCARZKEW 30 2018/07/22
2018/06/22 Nexbox A95X Pro 2GB/16GB S905W 4K TV Box with Voice Remote $38.99 NEXBOX 50 2018/07/22
2018/06/22 D8-S 2.4G Backlight Mini Wireless Keyboard with 4.1 in Touchpad $15.99 HUMPUBWI 50 2018/07/22
2018/06/22 Tronsmart Pixie Speaker + Free Gifts $37.99 WTLUAQJI 50 2018/07/22
2018/06/22 Zhiyun Smooth 4 3-Axis Brushless Handheld Gimbal $135.00 WYGFCAVE 100 2018/07/22
2018/06/22 Original Xiaomi Mijia Protective Cover Kit For Xiaomi A1/S2 $49.99 LMQENCWH 100 2018/07/22
2018/06/22 DDPai Mini2 2K Car DVR Camera Built-in Dual $67.99 PITJGYSP 100 2018/07/22
2018/06/22 C10 Infrared Sensor Car Wireless Charging Stand $21.99 QDNXSLTA 100 2018/07/22
2018/06/22 Kemei KM-680A 5 in 1 Rechargeable Electric Hair Shaver $28.99 UVIPIBZL 100 2018/07/22


Update on June 21, 2018

Update Date Product Name Final Prices Link on Coupon Limited Qty Expiry Date
2018/06/21 Oneplus 6 8GB 128GB – Silk White $639.99 WUOCPHXE 100 2018/07/21
2018/06/21 Xiaomi Redmi 6 3GB 32GB – Silver Gray $147.99 UBJLHGVB 100 2018/07/21
2018/06/21 Xiaomi Redmi 6A 2GB 16GB – Gold $116.99 ZGXFCBFL 100 2018/07/21
2018/06/21 HUAWEI Honor 10 6GB 64GB – Black $449.99 VYNVLIIS 100 2018/07/21
2018/06/21 HUAWEI Honor 10 6GB 128GB – Purple $469.99 KPSJCDZH 100 2018/07/21
2018/06/21 Xiaomi Mijia 3-Axis Stabilizing Gimbal Handheld $126.99 LYLCUYYR 20 2018/07/21
2018/06/21 Ramsta S600 480GB SSD $75.99 SGDBKEWN 50 2018/07/21
2018/06/21 Xiaomi Router 4Q MiNET One-click Connection $29.99 EBVFLTOX 100 2018/07/21
2018/06/21 Weloop Neo Smart Bracelet $79.99 VYIUDMXF 50 2018/07/21
2018/06/21 VOYO VBook I7 Plus Tablet 12.6″ i7-7500U 8G/256G $719.99 GKB82VW 20 2018/07/21
2018/06/21 Jumper EZbook X4 Laptop N4100 14″ 6G/128G $289.99 GKB81JW 35 2018/07/21
2018/06/21 CHUWI GBox Gemini Lake N4100 Licensed Win10 Mini PC $189.99 NKFIVJKQ 20 2018/07/21
2018/06/21 VORKE V5 Plus Windows 10 Mini PC $189.99 JJLWILMT 20 2018/07/21
2018/06/21 VORKE V6 i7-6700HQ Game PC $399.99 AUHBRTDU 5 2018/07/21
2018/06/21 Hystou FMP04B i5-4200U 8GB/128GB Mini Computer $299.99 HYSTOU1 6 2018/07/21
2018/06/21 Zhiyun Servo Follow Focus Mechanical $110.00 NBQBNVJM 50 2018/07/21
2018/06/21 Zhiyun Motion Sensor Remote Control $139.00 QVHVCHNQ 50 2018/07/21
2018/06/21 Usb Charging Aromatherapy Fan $10.99 FGQAMITU 100 2018/07/21
2018/06/21 Xiaomi Hualai Xiaofang $49.99 RFNBUOUB 100 2018/07/21
2018/06/21 [Germany Stock] YI WiFi IP Camera $79.99 HHXGQXEX 10 2018/07/21


Update on June 20, 2018

Update Date Product Name Final Prices Link on Coupon Limited Qty Expiry Date
2018/06/20 [Spain Stock] Haier XShuai ShuaiXiaoBao Robot Vacuum Cleaner $89.99 TWHABFJA 30 2018/07/20
2018/06/20 [Germany Stock] Global Xiaomi Redmi 5 Plus 4GB 64GB – Gold $199.99 NZOTFNTI 50 2018/07/20
2018/06/20 [Italy Stock] LeTV LeEco Le Pro 3 AI Edition 4GB 64GB – Gold $145.99 OLMYCFAQ 50 2018/06/30
2018/06/20 [Germany Stock] Global Xiaomi Redmi Note 5 4GB 64GB – Gold $245.99 NSZYEEDV 50 2018/07/20
2018/06/20 [Germany Stock] Global Xiaomi Mi Mix 2S 6GB 128GB – Black $599.99 YOIGBXTM 30 2018/07/20
2018/06/20 [Germany Stock] Lenovo P8 Tab3 Plus 8703N $154.99 GKB80LM 50 2018/07/20
2018/06/20 XShuai HXS-C3 Robotic Vacuum Cleaner $159.99 RLVQFRGE 100 2018/07/20
2018/06/20 Xiaomi Gaming Mouse $49.99 CEZGBMZD 50 2018/07/20
2018/06/20 Makibes ID130 Smart Bracelet Countinuous Heart Rate Monitor $19.99 FPPANXHA 50 2018/07/20
2018/06/20 [HK Stock] Mi notebook 12.5″ M3-7Y30 4GB/256GB Silver $579.99 GKB79XM 50 2018/07/20
2018/06/20 4022D 4.1 Inch Digital TFT Touch Screen Car MP5 $39.99 PDFYJKGK 50 2018/07/20
2018/06/20 Anytek G200 Car Recorder 2.7 Inch Touch Screen $95.99 LBREFNOA 50 2018/07/20
2018/06/20 Original SJCAM SJ6 LEGEND 4K WiFi Action Camera $126.99 LXJBQOYB 50 2018/07/20
2018/06/20 HUAWEI FreeBuds Wireless Bluetooth Earphone $146.99 FVKXCEXB 50 2018/07/20
2018/06/20 [HK Stock] Xiaomi Roidmi F8 Smart Vacuum Cleaner $359.99 VMHOIYDH 100 2018/07/20


Update on June 19, 2018

Update Date Product Name Final Prices Link on Coupon Limited Qty Expiry Date
2018/06/19 [Poland Stock] LeTV LeEco Le Pro 3 AI X650 4GB 64GB- Gold $146.99 QLRWUZCZ 50 2018/07/12
2018/06/19 [Poland Stock] Global Xiaomi Redmi 5 Plus 4GB 64GB – Black $199.99 INPHCLZI 50 2018/07/12
2018/06/19 [Poland Stock] Global Xiaomi Redmi 5 3GB 32GB – Gold $149.99 GLSVGVBI 50 2018/07/12
2018/06/19 [Poland Stock] Global Xiaomi Redmi 5 Plus 4GB 64GB – Gold $199.99 CPHHOJII 50 2018/07/12
2018/06/19 [Poland Stock]GOME K1 4GB 128GB – Gray $132.99 UEQHHHKP 30 2018/07/12
2018/06/19 [Poland Stock]GOME K1 4GB 64GB – Gray $118.99 ICYVPMIQ 30 2018/07/12
2018/06/19 [Poland Stock] Global Xiaomi Redmi 5A – Sakura Pink $107.99 KPIXNMAW 20 2018/07/12
2018/06/19 [Poland Stock] Global Xiaomi Redmi 5A – Silver Gray $107.99 OSTUSPVA 10 2018/07/12
2018/06/19 [Poland Stock] Global Ulefone Armor 2 6GB 64GB – Gold $265.99 CJDYSCAQ 10 2018/07/12
2018/06/19 [Poland Stock] Global Ulefone Armor 2 6GB 64GB – Dark Gray $265.99 UHLQIKXR 10 2018/07/12
2018/06/19 [Poland Stock] ZTE Nubia M2 Lite 3GB 64GB – Black Gold $127.99 OKEWOYOY 10 2018/07/12
2018/06/19 [HK Stock] Global Xiaomi Redmi Note 5 4GB 64GB – Gold $209.99 FHCMSAWQ 100 2018/07/12
2018/06/19 [HK Stock] Oneplus 6 6GB 64GB – Mirror Black $529.99 CMTJJAHL 100 2018/07/12
2018/06/19 [HK Stock] SHARP AQUOS S2 4GB 64GB – Blue $179.99 JPHWWRMO 100 2018/07/12
2018/06/19 [HK Stock] SHARP Z2 FS8002 4GB 32GB – Gold $109.99 SSRQMRBW 100 2018/07/12
2018/06/19 Conquest S8 4GB 64GB – Black $509.99 WNRTYVAZ 100 2018/07/12
2018/06/19 Xiaomi Gaming Mouse $49.99 ALSPBHDI 100 2018/07/19
2018/06/19 Tronsmart Quick Charge 3.0 Fast Charge $9.99 UXSNVHPJ 100 2018/07/18
2018/06/19 Anytek G200 Car Recorder 2.7 Inch Touch Screen $95.99 JAMFHDNV 100 2018/07/18
2018/06/19 Xiaomi Mijia TS Clip Anti-blue Light Lens $15.99 OMGDOWFU 100 2018/07/18
2018/06/19 Official International Version Xiaomi Mijia 4K Ambarella $119.99 WYZTZGRL 100 2018/07/18
2018/06/19 ZHIYUN Crane 2 $655.00 ZLDNXFAC 100 2018/07/18
2018/06/19 Misida Intelligent Cervical Vertebra Physiotherapy Instrument $65.99 ZTHMLGYT 100 2018/07/18
2018/06/19
7% off cellphones from origial prices
TWDPOBGM 200 2018/06/21
2018/06/19
10% off smart wearable devices from origial prices
SYEPLDPR 200 2018/07/07
2018/06/19 Xiaomi Mi8 6GB 64GB – Black $509.99 Flash Sale 50 2018/06/21
2018/06/19 [HK Stock] Global Xiaomi Roborock Xiaowa Lite Vacuum Cleaner $149.99 Flash Sale 50 2018/06/21
2018/06/19 [HK Stock]Global Xiaomi Mi Mix 2S 6GB 64GB – Black $483.99 Flash Sale 50 2018/06/20


Update on June 11, 2018

Update Date Product Name Final Prices Link on Coupon Limited Qty Expiry Date
2018/06/11 [HK Stock] Global Xiaomi Mi Mix 2S 6GB 128GB – Black $529.99 YMPFMRXT 100 2018/07/11
2018/06/11 Oneplus 6 6GB 64GB – Mirror Black $539.99 ONOXORRW 100 2018/07/11
2018/06/11 VORKE V5 Plus Windows 10 4GB/64GB Mini PC $199.99 UAEYJOGU 100 2018/07/11
2018/06/11 [Germany Stock]Himedia Q10 Pro Hi3798CV200 TV BOX $156.99 GEQ10PRO 100 2018/07/11
2018/06/11 [Italy Stock]ZIDOO H6 PRO 6K Streaming Box $84.99 ZIDOH6IT 100 2018/07/11
2018/06/11 Xiaomi Lefan Cold Warm Eye Massager $59.99 FGUMSKWH 100 2018/07/11
2018/06/11 Xiaomi Mijia Roborock Vacuum Cleaner 2 $449.99 VMJJVRIO 100 2018/07/11
2018/06/11 [HK Stock] Global Xiaomi Roborock Xiaowa Lite Vacuum Cleaner $154.99 IVUHXVGF 200 2018/07/11
2018/06/11 PAPAGO Gosafe 738 PPG8031 Dual Core 5.0 Inches Screen $119.99 NCWRRGLK 100 2018/07/11
2018/06/11 Xiaomi Mijia TS Travelers Sunglasses Prevent UVA UVB $49.99 WCPYPQXZ 100 2018/07/11


Update on June 8, 2018

Update Date Product Name Final Prices Link on Coupon Limited Qty Expiry Date
2018/06/08 [HK Stock] Global Xiaomi Redmi Note 5 4GB 64GB – Black $209.99 LQHGBQPZ 100 2018/07/08
2018/06/08 Xiaomi Mi8 6GB 128GB – White $539.99 EYGVGHYA 100 2018/07/08
2018/06/08 Xiaomi Mi8 6GB 128GB – Black $559.99 HRQNJNFG 100 2018/07/08
2018/06/08 Xiaomi Mi8 6GB 256GB – Black $629.99 PVSJKJTL 100 2018/07/08
2018/06/08 [Italy Stock] Global Xiaomi Mijia Roborock Vacuum Cleaner 2 $449.40 ITMIROBOT2 50 2018/07/07
2018/06/08 [HK Stock][Package A]Xiaomi Mijia Roborock Vacuum Cleaner 2 $459.99 YLIDJWED 50 2018/07/08
2018/06/08 [Spain Stock]Ramsta S600 480GB SSD $99.99 VWDEPVTA 30 2018/07/08
2018/06/08 [Italy Stock] Global Xiaomi Redmi 5A 2GB 16GB – Silver Gray $112.99 XSFZBXMP 15 2018/07/07
2018/06/08 [Italy Stock] Global ROM Xiaomi Mi Max 2 4GB 128GB – Gold $267.99 TRWMSTSB 50 2018/07/07
2018/06/08 [Italy Stock] Global ROM Xiaomi Mi Mix 2 6GB 256GB – Black $669.99 JPUDLZGK 10 2018/07/07
2018/06/08 [Italy Stock] Global Version Xiaomi Mi Mix 2 6GB 64GB – Black $409.99 KTSFWLJL 30 2018/07/07
2018/06/08 [Italy Stock]ZTE Nubia M2 Lite 3GB 64GB – Gold $129.99 YBAACAPF 15 2018/07/07
2018/06/08 Xiaomi 70Mai Car Buck line Dash Camera Hard Wire $9.99 PKTCCTAA 50 2018/07/08
2018/06/08 XIAOMI 4K MI BOX $59.00 Flash Sale 100 2018/06/10
2018/06/08 Thieye E7 ICatch V50 Panasonic 34112 2.0 Inch LCD $92.99 DQIGTLEW 50 2018/07/08
2018/06/08 Infrared Sensor Car Wireless Charging Stand $26.99 RDZCKAND 50 2018/07/08


Update on June 7, 2018

Update Date Product Name Final Prices Link on Coupon Limited Qty Expiry Date
2018/06/07
Geekbuying 6th Anniversary, June 5th – June 22nd
flash sale
2018/06/07
Get $6 off orders $60 or more with coupon code , valid till June 17th
JEYDHTHL
2018/06/07 [Spain Stock] Chuwi Hi9 8.4″ MTK8173 4G+64G $174.99 GKB66JM 50 2018/07/06
2018/06/07 [Italy Stock]LeTV LeEco Le Pro 3 AI Edition X650 4GB 64GB – Gold $145.99 OLMYCFAQ 50 2018/07/07
2018/06/07 [Italy Stock] Global Xiaomi Redmi S2 3GB 32GB – Gray $177.99 LCFJJVBR 30 2018/07/07
2018/06/07 [Italy Stock] Global Xiaomi Redmi 5 Plus 4GB 64GB – Black $199.99 TBBLVLBF 50 2018/07/07
2018/06/07 [Italy Stock] Global ROM Xiaomi Redmi 5 Plus 4GB 64GB – Gold $199.99 QZJPZBDD 30 2018/07/07
2018/06/07 [Italy Stock] Global ROM Xiaomi Redmi 5 Plus 3GB 32GB- Blue $175.99 MPSRGBDD 30 2018/07/07
2018/06/07 [Italy Stock] Global Xiaomi Redmi 5 3GB 32GB – Gold $155.99 YJPXILGG 30 2018/07/07
2018/06/07 [Italy Stock] Global Xiaomi Redmi Note 5 3GB 32GB – Gold $208.99 REMKNAWR 30 2018/07/07
2018/06/07 [Italy Stock] Global Xiaomi Mi A1 4GB 32GB – Black $185.99 ZCYHKUBI 30 2018/07/07
2018/06/07 [Italy Stock] Global Xiaomi Mi A1 4GB 32GB – Rose Gold $185.99 ZCYHKUBI 30 2018/07/07
2018/06/07 Xiaomi Mi 6x 4GB 64GB Black $289.99 UIJVXKLK 100 2018/07/07
2018/06/07 [HK Stock] Global Xiaomi Redmi Note 5 4GB 64GB – Black $218.99 WZHBXMIS 100 2018/07/07
2018/06/07 LeTV LeEco Le 2 X522 3G 32GB – Gray $99.99 JYNICQFL 100 2018/07/06
2018/06/07 VOYO V3 Pro 13.3″ N3450 8G/128G SSD Windows 10 $329.99 GKB69VW 50 2018/07/07
2018/06/07 VOYO VBook I7 Plus 12.6″ Tablet i7-7500U 8G/256G $685.99 GKB68VW 50 2018/07/07
2018/06/07 Chuwi Lapbook Air N3450 8G/128G $359.99 GKB67CT 50 2018/07/06
2018/06/07 ACGAM 105 Keys RGB Mechanical Keyboard Spanish Layout $49.99 TYPIKNAZ 50 2018/07/07
2018/06/07 [HK Stock] Razer BlackWidow Chroma V2 Keyboard $139.99 FZTYEWTJ 50 2018/07/07
2018/06/07 Xiaomi Xumei Four-head Reciprocating Shaver $69.99 ROEDGNKS 100 2018/07/07

 

 

Did you find apk for android? You can find new Free Android Games and apps.